Regional Weather Roundup
Issued by NWS

Home | Current Version | Previous Version | Text Only | Print | Product List | Glossary Off
Versions: 1 2 3 4 5 6 7 8 9 10 11 12 13 14 15 16 17 18 19 20 21 22 23 24 25 26 27 28 29 30 31 32 33 34 35 36 37 38 39 40 41 42 43 44 45 46 47 48 49 50

000
ASUS43 KLSX 261659
RWRMO

WEATHER SUMMARY FOR MISSOURI
NATIONAL WEATHER SERVICE SPRINGFIELD MO
1100 AM CST WED NOV 26 2014

NOTE: "FAIR" INDICATES FEW OR NO CLOUDS BELOW 12,000 FEET WITH NO
       SIGNIFICANT WEATHER AND/OR OBSTRUCTIONS TO VISIBILITY.
       CURRENT SKY AND/OR WEATHER CONDITIONS ARE NOT AVAILABLE FOR
       CHILLICOTHE AND FARMINGTON.

MOZ001>031-035>038-043-044-053-054-261800-
...NORTHERN AND WESTERN MISSOURI...

CITY           SKY/WX    TMP DP  RH WIND       PRES   REMARKS
KANSAS CTY INT PTSUNNY   41  32  70 NW21G30   29.98R
KANSAS C DTWN  CLOUDY    43  32  65 NW15G24   29.99R
LEE`S SUMMIT   CLOUDY    41  32  70 NW20G29   29.99R
ST JOSEPH      CLOUDY    40  33  76 NW25G32   29.99R WCI  29
CHILLICOTHE      N/A     39  34  82 VRB6      29.94R
KIRKSVILLE     CLOUDY    32  32 100 S7        29.93S FOG     WCI  26

$$
MOZ066>068-077>081-088>096-101>105-261800-
...SOUTHWEST MISSOURI...

CITY           SKY/WX    TMP DP  RH WIND       PRES   REMARKS
SPRINGFIELD    MOSUNNY   43  35  73 W13       29.99S
JOPLIN         SUNNY     48  30  49 NW15      30.05S

$$
MOZ032>034-039>042-045>050-055>058-069>072-261800-
...CENTRAL MISSOURI...

CITY           SKY/WX    TMP DP  RH WIND       PRES   REMARKS
COLUMBIA       CLOUDY    36  34  92 SW9       29.95F WCI  29
JEFFERSON CITY   N/A     37  34  89 VRB3      29.98S
ROLLA          LGT SNOW  32  31  96 SW7       29.95F VSB 3/4 WCI  26
SEDALIA        PTSUNNY   43  31  62 W13       29.96S
WARRENSBURG    CLOUDY    41  34  75 W13G18    29.98S
OSAGE BEACH    CLOUDY    36  34  93 SW8       29.97F WCI  29

$$
MOZ051-052-059>065-261800-
...EAST CENTRAL MISSOURI...

CITY           SKY/WX    TMP DP  RH WIND       PRES   REMARKS
ST LOUIS INTL  CLOUDY    36  28  73 SE10      30.03F WCI  28
SPIRIT OF STL  CLOUDY    34  27  75 CALM      30.01F
ST CHARLES     CLOUDY    33  29  85 E9        30.02F WCI  25

$$
MOZ072>076-082>087-097>100-106>115-261800-
...SOUTH CENTRAL AND SOUTHEAST MISSOURI...

CITY           SKY/WX    TMP DP  RH WIND       PRES   REMARKS
CAPE GIRARDEAU CLOUDY    37  32  82 SE12      30.06F WCI  29
FARMINGTON     CLOUDY    34  28  80 SE8       30.01F WCI  27
POPLAR BLUFF   CLOUDY    37  31  78 SE7       30.05F
WEST PLAINS    LGT SNOW  33  31  92 W5        29.99F FOG     WCI  29

$$



USA.gov is the U.S. government's official web portal to all federal, state and local government web resources and services.